Content
SEND FEEDBACK

Daily
Averages
Monthly
Summary
Turkey

ADIYAMAN, TURKEY


Home > Middle East > Turkey
Elevation: 2224 feet     Latitude: 37 48N     Longitude: 038 18E

WEATHER
 
SELECT A DAY
Number of Records: 143,011;   Date Range: 7/1/96 - 9/30/14
 
SHARE

PRINT THIS DATA

[ ← Previous Day ]
WEATHER ALMANAC - JANUARY 14, 2013
[ Next Day → ]
[ °C ]   °F
Weather ElementAverageHighLow
Temperature28.9 °F39.2 °F (12:20 pm)23 °F (6:50 am)
Dewpoint25.5 °F30.2 °F (12:20 pm)21.2 °F (6:20 pm)
Humidity88.1 %100 % (12:50 am)65 % (3:50 pm)
Barometer30.31 in30.33 in (7:20 am)30.27 in (12:50 am)
Wind Speed4.6 mph8.1 mph (2:20 am)
Weather ElementAverage
Visibility6.1 mi
Wind DirectionS (184.1 °)

Weather ElementTotal
Precipitation---
Heating Degree Days33.9 (Base 65)
Averaged from 46 records on January 14, 2013
WEATHER CONDITIONS BREAKOUT
WIND DIRECTION BREAKOUT
WEATHER BY HOUR - JANUARY 14, 2013
[ °C ]   °F
Local TimeTemperatureDewpointHumidityBarometerVisibilityWind DirectionWind SpeedGust SpeedPrecipitationEventsConditions
12:50 AM26.6 °F26.6 °F100 %30.27 in5.0 miSW (220°)6.9 mphOvercast
1:20 AM26.6 °F26.6 °F100 %30.27 in3.7 miSSW (200°)4.6 mphOvercast
1:50 AM26.6 °F24.8 °F93 %30.27 in6.2 miSSW (200°)5.8 mphOvercast
2:20 AM26.6 °F26.6 °F100 %30.27 in6.2 miSW (230°)8.1 mphMostly Cloudy
2:50 AM24.8 °F24.8 °F100 %30.27 in6.2 miSouth (190°)3.5 mphMostly Cloudy
3:20 AM24.8 °F24.8 °F100 %30.27 in6.2 miSSW (210°)5.8 mphMostly Cloudy
3:50 AM24.8 °F24.8 °F100 %30.27 in6.2 miSSW (210°)6.9 mphMostly Cloudy
4:20 AM26.6 °F26.6 °F100 %30.27 in6.2 miSW (220°)5.8 mphMostly Cloudy
4:50 AM26.6 °F26.6 °F100 %30.27 in6.2 miSouth (190°)4.6 mphMostly Cloudy
5:20 AM26.6 °F26.6 °F100 %30.27 in6.2 miSSW (210°)5.8 mphMostly Cloudy
5:50 AM26.6 °F26.6 °F100 %30.30 in6.2 miSSW (200°)3.5 mphMostly Cloudy
6:20 AM24.8 °F24.8 °F100 %30.30 in6.2 miSW (220°)5.8 mphMostly Cloudy
6:50 AM23.0 °F23.0 °F100 %30.30 in6.2 miSSW (210°)6.9 mphMostly Cloudy
7:20 AM23.0 °F23.0 °F100 %30.33 in6.2 miSW (220°)4.6 mphMostly Cloudy
7:50 AM24.8 °F24.8 °F100 %30.33 in6.2 miSSW (210°)6.9 mphMostly Cloudy
8:20 AM26.6 °F24.8 °F93 %30.33 in6.2 miSSW (210°)4.6 mphMostly Cloudy
8:50 AM28.4 °F26.6 °F93 %30.33 in6.2 miSSW (200°)8.1 mphMostly Cloudy
9:20 AM28.4 °F26.6 °F93 %30.33 in6.2 miSSW (210°)8.1 mphScattered Clouds
9:50 AM30.2 °F26.6 °F86 %30.33 in6.2 miSW (220°)6.9 mphScattered Clouds
10:20 AM32.0 °F28.4 °F87 %30.33 in6.2 miSSW (210°)4.6 mphScattered Clouds
10:50 AM33.8 °F26.6 °F75 %30.33 in6.2 miSouth (180°)3.5 mphScattered Clouds
11:20 AM35.6 °F28.4 °F75 %30.30 in6.2 miEast (100°)3.5 mphMostly Cloudy
11:50 AM35.6 °F28.4 °F75 %30.30 in6.2 miCalmPartly Cloudy
12:20 PM39.2 °F30.2 °F70 %30.30 in6.2 miVariable1.2 mphPartly Cloudy
12:50 PM37.4 °F28.4 °F70 %30.30 in6.2 miNorth (350°)2.3 mphPartly Cloudy
1:20 PM37.4 °F28.4 °F70 %30.30 in6.2 miWest (270°)2.3 mphPartly Cloudy
1:50 PM37.4 °F28.4 °F70 %30.30 inWSW (250°)3.5 mphClear
2:20 PM37.4 °F28.4 °F70 %30.30 inSSW (210°)3.5 mphClear
2:50 PM37.4 °F28.4 °F70 %30.30 inSSW (210°)3.5 mphClear
3:20 PM37.4 °F28.4 °F70 %30.30 inVariable2.3 mphClear
3:50 PM39.2 °F28.4 °F65 %30.30 inSSE (160°)1.2 mphClear
4:20 PM33.8 °F28.4 °F81 %30.30 inVariable2.3 mphClear
4:50 PM30.2 °F26.6 °F86 %30.30 inWSW (240°)2.3 mphClear
5:20 PM28.4 °F24.8 °F86 %30.33 inCalmClear
5:50 PM26.6 °F24.8 °F93 %30.33 inSW (230°)6.9 mphClear
6:20 PM24.8 °F21.2 °F86 %30.33 inSW (230°)8.1 mphClear
6:50 PM26.6 °F23.0 °F86 %30.33 inVariable5.8 mphClear
7:20 PM24.8 °F23.0 °F93 %30.33 inSSW (200°)3.5 mphClear
8:20 PM23.0 °F21.2 °F93 %30.33 inSouth (190°)3.5 mphClear
8:50 PM24.8 °F23.0 °F93 %30.33 inSW (230°)6.9 mphClear
9:20 PM23.0 °F21.2 °F93 %30.33 inSSW (200°)4.6 mphClear
9:50 PM24.8 °F23.0 °F93 %30.33 inSW (230°)4.6 mphClear
10:20 PM23.0 °F21.2 °F93 %30.33 inSouth (180°)3.5 mphClear
10:50 PM23.0 °F21.2 °F93 %30.33 inSW (230°)4.6 mphClear
11:20 PM28.4 °F23.0 °F80 %30.33 inSW (230°)4.6 mphClear
11:50 PM26.6 °F21.2 °F80 %30.33 inSSE (160°)3.5 mphClear
Hourly data recorded from LTCP, located miles away from Adiyaman, Turkey







STORIES FROM OUR PARTNERS